Date,TemperatureHighF,TemperatureAvgF,TemperatureLowF,DewpointHighF,DewpointAvgF,DewpointLowF,HumidityHigh,HumidityAvg,HumidityLow,PressureMaxIn,PressureMinIn,WindSpeedMaxMPH,WindSpeedAvgMPH,GustSpeedMaxMPH,PrecipitationSumIn
2013-1-1,19,2,-12,16,-1,-16,90,84,75,30.38,30.12,7,0,7,0.00
2013-1-2,21,17,14,18,14,12,93,90,84,30.15,30.01,12,0,12,0.00
2013-1-3,19,11,7,15,7,3,91,83,72,30.34,30.14,11,1,13,0.00
2013-1-4,28,17,8,18,12,5,91,83,65,30.19,30.09,9,0,9,0.02
2013-1-5,23,14,5,14,10,2,93,84,69,30.15,29.92,13,1,13,0.00
2013-1-6,20,14,8,13,10,4,91,83,70,30.29,30.08,11,1,12,0.00
2013-1-7,34,26,15,26,22,13,94,83,72,30.08,29.94,15,0,17,0.05
2013-1-8,35,24,10,29,21,8,100,88,75,30.02,29.80,9,0,9,0.04
2013-1-9,32,30,27,27,24,21,92,78,67,30.31,29.95,19,2,19,0.00
2013-1-10,41,31,22,32,26,20,96,83,54,30.33,29.77,1,0,10,0.40
2013-1-11,38,35,33,38,34,32,98,97,96,29.75,29.39,1,0,12,0.07
2013-1-12,36,14,3,36,9,-2,98,79,69,30.14,29.40,3,1,16,0.00
2013-1-13,7,4,0,1,-1,-5,86,79,74,30.33,30.12,4,1,11,0.00
2013-1-14,11,6,1,4,1,-2,92,82,70,30.51,30.34,3,0,9,0.00
2013-1-15,30,16,2,19,10,0,93,81,60,30.35,29.90,2,0,13,0.00
2013-1-16,36,25,10,32,18,0,94,76,53,30.28,29.72,14,3,15,0.02
2013-1-17,19,11,3,12,3,-3,85,71,57,30.46,30.28,10,0,12,0.00
2013-1-18,41,28,16,32,24,12,93,83,68,30.36,29.77,12,0,15,0.00
2013-1-19,38,21,2,32,16,-4,97,81,63,30.31,29.70,30,5,33,0.01
2013-1-20,2,0,-1,-4,-6,-8,76,75,73,30.41,30.30,16,3,16,0.00
2013-1-21,-4,-7,-12,-10,-14,-18,81,71,64,30.46,30.37,14,2,21,0.00
2013-1-22,4,-4,-12,-2,-11,-17,86,73,64,30.53,30.34,9,0,10,0.00
2013-1-23,14,6,-5,8,-2,-14,87,70,55,30.70,30.25,27,4,27,0.00
2013-1-24,13,3,-6,4,-7,-16,69,63,56,30.77,30.24,14,1,15,0.00
2013-1-25,19,12,3,16,4,-3,89,72,59,30.38,30.03,30,3,30,0.00
2013-1-26,24,12,-2,13,4,-6,92,73,55,30.43,30.17,10,0,14,0.00
2013-1-27,32,28,20,30,24,13,96,84,66,30.17,29.83,5,0,5,0.04
2013-1-28,35,32,30,34,31,29,97,96,93,29.92,29.65,6,0,9,0.29
2013-1-29,35,32,31,31,30,27,97,92,83,29.73,29.54,16,3,17,0.16
2013-1-30,27,15,8,23,9,2,84,77,73,29.83,29.67,24,7,24,0.00
2013-1-31,8,0,-9,2,-7,-16,87,74,68,30.38,29.83,23,5,24,0.00
2013-2-1,5,-4,-15,2,-10,-20,89,75,58,30.43,30.14,9,0,9,0.00
2013-2-2,10,6,1,6,0,-4,87,79,64,30.27,30.05,9,1,10,0.00
2013-2-3,13,10,3,8,5,-1,88,80,68,30.17,30.03,14,1,16,0.00
2013-2-4,15,9,1,11,3,-4,90,75,55,30.14,29.82,10,1,10,0.00
2013-2-5,29,20,2,26,16,-2,96,84,65,30.13,29.73,14,2,15,0.00
2013-2-6,27,14,-3,20,11,-6,90,85,75,30.17,29.98,7,0,7,0.00
2013-2-7,27,25,20,23,21,18,93,87,79,30.30,30.03,18,4,18,0.00
2013-2-8,26,23,20,22,18,14,87,81,72,30.41,30.25,7,0,11,0.03
2013-2-9,32,28,25,28,25,22,93,88,84,30.26,29.95,15,1,15,0.03
2013-2-10,33,30,28,32,29,25,97,94,89,29.95,29.29,17,2,18,0.00
2013-2-11,29,24,14,28,19,10,96,83,76,30.09,29.36,26,6,26,0.00
2013-2-12,36,22,10,25,18,7,93,82,62,30.09,29.85,10,0,11,0.24
2013-2-13,39,27,15,32,23,12,100,85,66,29.85,29.59,7,0,7,0.31
2013-2-14,32,25,11,31,19,4,96,79,52,30.22,29.60,20,4,20,0.03
2013-2-15,32,10,2,9,2,-6,92,72,37,30.38,30.22,14,2,17,0.00
2013-2-16,17,7,-3,8,2,-7,100,81,66,30.34,30.17,7,0,7,0.00
2013-2-17,33,20,5,24,15,1,97,80,65,30.19,29.66,15,0,15,0.04
2013-2-18,33,21,5,31,16,1,94,83,74,29.87,29.55,22,4,23,0.01
2013-2-19,6,2,-4,1,-6,-11,82,71,64,30.46,29.87,21,6,23,0.00
2013-2-20,16,3,-11,6,-4,-16,84,72,57,30.56,30.46,10,1,11,0.00
2013-2-21,22,13,-1,13,6,-4,92,72,58,30.52,30.14,12,1,16,0.00
2013-2-22,26,22,19,21,18,13,92,86,70,30.14,29.90,13,2,13,0.04
2013-2-23,27,19,7,22,15,4,93,87,75,30.02,29.90,5,0,6,0.04
2013-2-24,33,16,-2,23,11,-5,100,82,63,30.16,30.01,5,0,7,0.07
2013-2-25,36,26,14,25,20,12,93,81,64,30.16,30.07,6,0,6,0.02
2013-2-26,34,25,12,29,21,9,95,83,74,30.09,29.92,19,4,19,0.00
2013-2-27,39,31,27,26,24,22,85,76,57,30.06,29.90,20,5,22,0.00
2013-2-28,29,28,24,23,21,16,82,75,69,30.25,30.06,15,3,17,0.00
2013-3-1,28,23,13,18,16,8,84,72,65,30.40,30.25,14,3,15,0.00
2013-3-2,29,18,2,16,10,-1,97,73,48,30.41,30.22,6,0,7,0.00
2013-3-3,34,23,17,15,11,9,73,61,42,30.22,30.04,9,0,10,0.00
2013-3-4,28,25,22,21,18,15,92,78,60,30.06,29.97,2,1,16,0.01
2013-3-5,29,25,20,24,22,16,93,86,79,30.34,30.00,14,3,16,0.03
2013-3-6,27,21,6,19,16,3,89,80,70,30.46,30.34,12,2,14,0.04
2013-3-7,32,17,0,21,11,-3,93,79,59,30.44,30.34,7,0,9,0.21
2013-3-8,39,27,14,30,22,12,93,83,67,30.38,30.11,6,0,7,0.20
2013-3-9,37,34,32,36,33,29,97,95,83,30.12,29.71,6,0,7,0.53
2013-3-10,34,32,29,34,29,24,100,86,80,29.97,29.79,23,8,27,0.03
2013-3-11,30,27,21,24,21,15,84,80,69,29.89,29.78,17,5,19,0.00
2013-3-12,27,23,20,20,16,11,83,74,55,30.25,29.87,21,5,22,0.00
2013-3-13,30,20,11,19,14,8,87,76,58,30.44,30.25,13,2,14,0.00
2013-3-14,41,30,23,29,24,18,92,79,60,30.30,30.05,8,0,10,0.06
2013-3-15,34,30,24,31,28,22,94,91,87,30.05,29.84,14,2,14,0.15
2013-3-16,24,20,12,22,14,5,92,77,58,30.29,29.92,15,4,17,0.00
2013-3-17,28,18,8,22,9,0,80,67,53,30.32,29.91,11,1,11,0.00
2013-3-18,29,21,11,28,16,5,95,81,70,29.91,29.64,19,2,19,0.00
2013-3-19,21,12,5,8,2,-1,78,66,49,30.28,29.88,21,4,21,0.06
2013-3-20,18,11,4,6,1,-3,79,64,54,30.31,30.20,24,5,24,0.00
2013-3-21,26,13,-4,10,4,-8,89,68,50,30.20,30.11,9,1,9,0.03
2013-3-22,36,20,2,17,10,-2,90,69,44,30.17,30.09,6,0,6,0.07
2013-3-23,36,25,11,21,16,8,93,71,48,30.20,30.13,7,1,9,0.00
2013-3-24,32,28,24,25,22,20,91,79,63,30.15,30.01,17,4,18,0.00
2013-3-25,36,29,22,23,19,16,82,66,49,30.27,30.07,18,5,19,0.00
2013-3-26,37,28,21,25,20,16,90,73,55,30.34,30.26,12,1,13,0.00
2013-3-27,44,27,12,23,18,9,94,71,39,30.40,30.34,6,0,7,0.00
2013-3-28,45,30,15,29,22,13,100,74,48,30.38,30.31,7,0,7,0.00
2013-3-29,51,38,26,37,32,23,93,78,56,30.32,30.07,9,0,11,0.00
2013-3-30,51,42,37,43,38,34,97,84,72,30.08,29.86,12,1,14,0.16
2013-3-31,37,30,22,31,20,14,94,68,49,30.13,29.82,19,7,26,0.00
2013-4-1,32,24,17,18,15,11,79,68,53,30.32,30.13,20,4,20,0.00
2013-4-2,34,25,14,18,15,11,93,68,42,30.40,30.30,14,2,15,0.00
2013-4-3,45,31,13,33,23,11,100,72,45,30.44,30.09,17,1,17,0.00
2013-4-4,48,40,31,34,29,24,83,65,45,30.19,30.02,19,4,19,0.00
2013-4-5,43,33,25,34,26,18,99,76,45,30.26,29.90,10,1,10,0.07
2013-4-6,54,41,34,47,36,31,93,81,63,29.91,29.51,16,2,16,0.12
2013-4-7,47,40,35,40,35,31,94,82,67,29.96,29.76,10,1,10,0.11
2013-4-8,45,42,40,42,40,36,97,93,85,30.05,29.68,14,2,15,0.71
2013-4-9,42,37,31,37,32,29,94,82,62,30.18,29.97,23,7,24,0.55
2013-4-10,37,34,30,31,27,24,100,78,64,30.21,29.92,17,3,18,0.24
2013-4-11,35,32,30,32,30,26,96,91,71,29.93,29.70,17,3,18,0.63
2013-4-12,35,30,27,30,27,25,95,89,76,29.87,29.70,12,3,13,0.26
2013-4-13,36,32,28,28,26,25,95,81,66,29.98,29.86,10,1,10,0.23
2013-4-14,35,32,29,34,29,24,97,88,74,29.97,29.49,19,2,22,0.58
2013-4-15,40,35,31,32,30,26,96,81,70,30.01,29.54,15,1,19,0.07
2013-4-16,41,36,32,30,28,26,85,73,60,30.34,29.99,15,2,18,0.00
2013-4-17,40,36,31,35,31,27,95,81,71,30.34,29.91,17,2,17,0.25
2013-4-18,34,32,30,32,30,29,97,95,90,29.95,29.54,25,6,25,0.14
2013-4-19,36,31,28,29,26,20,97,82,60,30.03,29.53,26,5,30,0.35
2013-4-20,42,31,20,22,18,11,87,61,34,30.33,30.03,7,1,9,0.12
2013-4-21,50,40,32,45,36,20,97,86,62,30.34,30.02,14,1,14,0.20
2013-4-22,43,36,31,36,32,30,96,87,65,30.22,30.11,16,4,17,0.10
2013-4-23,39,33,26,30,25,20,96,75,48,30.19,30.10,16,4,16,0.28
2013-4-24,52,36,23,34,28,21,95,77,38,30.10,29.93,23,1,23,0.02
2013-4-25,50,40,31,34,30,27,91,69,41,30.24,30.01,15,1,16,0.00
2013-4-26,69,54,41,50,40,32,86,61,36,30.12,29.97,13,1,13,0.00
2013-4-27,75,56,34,47,39,32,95,58,28,30.12,29.88,14,0,14,0.00
2013-4-28,82,62,47,53,49,44,92,65,33,29.88,29.59,18,2,21,0.08
2013-4-29,74,60,46,56,47,38,94,66,37,29.79,29.51,12,1,12,0.00
2013-4-30,69,62,55,60,47,30,91,60,27,29.95,29.37,17,2,18,0.00
2013-5-1,55,40,33,40,34,29,94,81,51,30.50,29.95,19,3,19,0.47
2013-5-2,46,39,35,30,28,26,77,64,47,30.57,30.43,20,7,21,0.00
2013-5-3,36,34,32,33,29,25,92,82,66,30.43,30.17,21,6,22,0.07
2013-5-4,48,39,32,42,36,30,94,89,78,30.19,30.13,17,5,19,0.04
2013-5-5,63,48,38,50,42,36,93,81,62,30.19,30.07,11,2,11,0.01
2013-5-6,74,59,41,52,47,40,97,69,41,30.11,29.98,10,1,11,0.00
2013-5-7,79,63,45,54,49,43,97,65,34,30.05,29.92,9,0,10,0.00
2013-5-8,56,55,53,53,51,49,91,87,82,29.95,29.93,2,0,2,0.00
2013-5-15,78,65,50,52,48,44,86,56,35,29.88,29.64,7,2,17,0.00
2013-5-16,82,67,46,51,47,36,95,55,29,29.89,29.80,4,1,17,0.00
2013-5-17,66,57,54,55,52,42,96,84,46,29.96,29.85,2,1,10,0.78
2013-5-18,80,64,55,69,60,54,99,89,63,29.98,29.76,2,0,13,1.77
2013-5-19,80,68,63,71,64,61,98,90,69,29.76,29.50,4,0,13,1.57
2013-5-20,71,65,58,64,61,57,99,87,70,29.54,29.46,1,0,15,0.34
2013-5-21,62,56,49,60,55,48,97,96,92,29.69,29.48,4,1,12,0.21
2013-5-22,53,48,44,50,46,43,97,94,76,29.99,29.68,19,4,21,0.20
2013-5-23,62,52,44,45,38,31,87,62,32,30.34,29.99,17,4,18,0.00
2013-5-24,69,53,34,52,42,32,95,69,40,30.39,30.13,11,0,12,0.24
2013-5-25,60,55,51,52,49,44,96,83,69,30.25,30.19,9,1,13,0.02
2013-5-26,56,54,50,50,45,40,81,74,61,30.21,30.01,11,1,12,0.00
2013-5-27,60,56,52,55,52,49,96,88,76,30.04,29.81,9,1,10,0.10
2013-5-28,59,56,52,57,54,51,99,95,91,29.81,29.70,8,0,9,0.06
2013-5-29,73,63,50,71,61,50,99,94,81,29.81,29.60,7,0,9,0.46
2013-5-30,76,67,61,66,64,60,99,90,69,29.65,29.47,14,0,15,0.20
2013-5-31,77,66,58,63,58,54,98,78,49,29.52,29.47,14,1,17,0.05
2013-6-1,70,58,51,60,53,44,98,84,62,29.93,29.50,21,3,21,0.01
2013-6-2,63,55,46,47,44,41,92,68,46,30.07,29.93,16,2,17,0.00
2013-6-3,69,57,42,52,46,40,98,70,44,30.06,29.91,6,0,6,0.00
2013-6-4,61,58,56,55,51,47,91,77,63,30.04,29.96,4,0,6,0.01
2013-6-6,56,53,50,53,51,49,96,92,88,30.03,29.95,3,2,11,0.00
2013-6-7,64,57,52,55,52,50,96,84,67,30.05,29.90,1,0,6,0.00
2013-6-8,71,61,51,59,55,49,98,81,61,29.91,29.85,1,0,9,0.00
2013-6-9,66,60,56,62,58,55,96,93,83,29.87,29.74,2,1,16,0.60
2013-6-10,73,64,58,64,61,56,98,89,74,29.83,29.78,2,0,9,0.00
2013-6-11,75,64,54,68,62,53,99,91,78,29.86,29.79,2,0,7,0.02
2013-6-12,71,66,60,66,62,55,98,86,68,29.91,29.73,15,2,15,0.83
2013-6-13,76,67,57,60,56,51,93,69,49,30.08,29.89,13,2,15,0.22
2013-6-14,78,67,53,65,60,51,96,77,60,30.05,29.83,10,0,13,0.06
2013-6-15,75,67,59,70,64,58,98,90,78,29.87,29.80,9,0,11,0.01
2013-6-16,85,67,52,62,57,49,98,75,32,29.90,29.81,27,0,28,0.01
2013-6-17,80,68,56,62,58,55,98,73,43,29.97,29.84,14,1,14,0.00
2013-6-18,76,65,55,62,56,50,92,75,52,30.05,29.97,9,1,10,0.00
2013-6-19,84,70,56,69,61,54,97,76,51,30.03,29.89,11,0,11,0.00
2013-6-20,87,76,66,73,67,61,92,74,54,29.95,29.81,15,0,15,0.00
2013-6-21,79,71,62,72,66,61,97,86,70,30.04,29.69,27,2,32,0.07
2013-6-22,79,70,64,71,67,63,99,90,75,29.95,29.78,6,0,9,0.09
2013-6-23,81,73,65,73,68,63,98,87,64,29.85,29.64,12,0,16,0.27
2013-6-24,82,70,60,73,67,60,99,89,72,29.87,29.76,9,0,9,0.06
2013-6-25,84,74,62,75,69,61,99,86,67,29.79,29.65,7,0,8,0.04
2013-6-26,86,77,69,77,71,65,99,83,57,29.77,29.59,13,1,15,0.02
2013-6-27,84,75,66,68,63,55,97,69,37,29.78,29.74,16,2,19,0.01
2013-6-28,76,70,65,64,61,58,95,73,61,29.78,29.71,21,3,22,0.01
2013-6-29,75,68,59,63,59,51,96,76,52,29.95,29.71,15,3,16,0.00
2013-6-30,65,57,54,56,53,51,92,85,73,30.07,29.95,9,0,9,0.00
2013-7-18,89,79,70,78,73,70,98,83,64,30.05,29.71,1,0,15,0.35
2013-7-19,81,76,67,72,67,62,93,73,55,29.84,29.67,4,1,15,0.14
2013-7-20,80,70,61,68,63,59,94,78,60,29.92,29.83,4,1,14,0.03
2013-7-21,80,68,58,70,63,53,97,83,67,29.92,29.76,1,0,7,0.18
2013-7-22,84,72,65,74,66,57,98,82,61,29.80,29.64,5,1,17,0.10
2013-7-23,74,66,58,58,56,55,89,72,53,29.99,29.81,5,2,14,0.06
2013-7-24,77,68,55,65,61,54,96,80,56,30.05,29.94,7,0,7,0.06
2013-7-25,78,69,59,70,63,58,99,84,63,29.95,29.87,11,0,12,0.04
2013-7-26,69,63,56,66,57,49,96,81,65,30.06,29.87,19,3,22,0.03
2013-7-27,62,57,50,54,49,46,92,76,60,30.06,29.92,18,2,18,0.01
2013-7-28,70,59,49,57,51,46,94,76,60,30.05,29.95,12,1,12,0.01
2013-7-29,75,62,48,63,56,47,98,82,55,30.11,30.05,3,0,4,0.00
2013-7-30,70,65,61,66,63,59,97,92,85,30.08,30.02,3,0,3,0.01
2013-7-31,78,66,57,69,60,54,100,84,57,30.06,29.96,11,0,11,0.00
2013-8-1,80,65,51,65,58,50,98,79,48,30.02,29.83,6,0,6,0.01
2013-8-2,74,66,55,61,57,53,94,75,51,30.02,29.82,9,1,11,0.00
2013-8-3,75,63,51,59,54,50,98,76,46,30.18,30.02,10,0,13,0.00
2013-8-4,74,61,50,64,56,48,98,85,62,30.21,29.98,3,0,3,0.00
2013-8-5,76,66,57,70,63,55,99,92,74,30.01,29.76,6,0,6,0.54
2013-8-6,64,58,54,61,56,53,98,95,89,29.82,29.78,4,0,6,0.01
2013-10-28,41,36,29,30,26,23,86,68,50,30.44,30.12,5,2,16,0.23
2013-10-29,41,36,28,36,29,23,91,75,70,30.43,30.12,2,0,11,0.05
2013-10-30,48,43,38,47,42,36,98,97,93,30.12,29.71,1,0,9,0.09
2013-10-31,48,42,39,48,41,37,98,95,89,29.69,29.41,1,0,11,0.03
2013-11-1,50,42,36,39,37,32,95,83,65,29.85,29.42,4,2,14,0.00
2013-11-2,47,38,29,37,32,27,94,81,59,30.10,29.85,5,1,16,0.00
2013-11-3,54,47,29,38,35,27,96,64,48,30.12,29.88,16,1,19,0.00
2013-11-4,47,42,30,44,37,28,97,82,65,30.16,29.82,12,0,13,0.17
2013-11-5,43,33,25,37,29,24,98,87,56,30.27,30.04,14,1,14,0.02
2013-11-6,36,32,27,32,27,24,96,85,66,30.20,30.04,15,1,15,0.18
2013-11-7,34,28,22,30,25,20,95,91,84,30.28,30.19,11,0,11,0.03
2013-11-8,44,34,20,40,29,18,97,83,59,30.24,29.63,12,0,12,0.00
2013-11-9,44,40,34,40,33,26,89,77,63,30.23,29.65,25,3,25,0.00
2013-11-10,41,36,32,32,30,27,85,77,65,30.35,30.10,15,1,15,0.00
2013-11-11,37,24,15,32,15,9,86,68,55,30.78,30.14,19,6,22,0.00
2013-11-12,27,18,10,16,11,6,92,74,52,30.85,30.50,7,0,7,0.00
2013-11-13,49,34,17,36,25,14,88,72,54,30.50,29.90,18,1,18,0.00
2013-11-14,51,38,28,41,33,26,93,82,67,29.90,29.76,6,0,6,0.00
2013-11-15,54,38,24,41,33,22,97,83,58,29.87,29.65,7,0,9,0.00
2013-11-16,46,41,36,46,40,34,97,93,82,29.65,29.23,10,0,11,0.15
2013-11-17,43,37,31,40,32,24,98,84,78,29.86,29.31,23,5,26,0.00
2013-11-18,34,27,18,25,21,16,92,77,63,30.29,29.85,22,4,25,0.00
2013-11-19,46,34,17,32,26,15,95,75,54,30.30,29.93,14,1,15,0.00
2013-11-20,44,41,37,35,32,28,92,71,59,30.04,29.89,13,0,16,0.00
2013-11-21,37,30,23,35,26,16,94,86,72,30.55,30.04,20,5,20,0.00
2013-11-22,32,22,12,17,12,3,92,68,38,30.69,30.50,20,3,23,0.00
2013-11-23,16,10,6,5,3,2,83,72,53,30.91,30.69,17,2,20,0.00
2013-11-24,30,18,4,17,10,1,88,71,55,30.78,30.05,17,1,17,0.00
2013-11-25,38,32,27,29,24,17,88,72,61,30.11,29.95,20,2,20,0.00
2013-11-26,30,20,13,22,9,4,75,62,53,30.43,30.11,25,6,26,0.00
2013-11-27,23,16,5,12,8,2,91,72,57,30.44,30.12,9,0,10,0.00
2013-11-28,25,22,21,16,14,12,76,70,67,30.34,30.11,12,1,14,0.00
2013-11-29,32,20,6,21,15,4,93,79,60,30.57,30.19,1,0,14,0.00
2013-11-30,38,29,19,29,24,17,96,81,67,30.19,30.06,1,0,6,0.00
2013-12-1,33,26,16,26,22,13,95,85,76,30.22,29.95,2,0,7,0.00
2013-12-2,38,32,24,33,30,22,96,91,79,29.95,29.59,9,0,9,0.08
2013-12-3,34,33,31,33,32,30,97,97,96,29.79,29.59,9,0,11,0.21
2013-12-4,31,26,11,30,25,7,97,93,83,29.79,29.50,14,1,14,0.00
2013-12-5,11,4,-6,7,-1,-9,96,82,72,30.44,29.76,18,0,21,0.00
2013-12-6,1,-6,-12,-5,-10,-16,86,81,73,30.76,30.43,5,0,6,0.00
2013-12-7,-1,-10,-18,-9,-14,-22,86,80,68,30.85,30.69,6,0,7,0.00
2013-12-8,12,6,-6,8,2,-10,90,86,83,30.69,30.11,5,0,5,0.00
2013-12-9,9,-2,-11,7,-7,-16,99,82,71,30.20,29.95,10,0,12,0.00
2013-12-10,21,8,1,11,2,-6,99,77,41,30.36,29.85,18,1,21,0.00
2013-12-11,5,-5,-10,-3,-11,-15,85,76,66,30.67,30.36,12,1,13,0.00
2013-12-12,18,10,0,11,5,-5,89,81,70,30.41,30.21,5,0,5,0.00
2013-12-13,16,13,7,10,8,4,92,80,75,30.34,30.18,15,2,15,0.00
2013-12-14,11,10,9,7,6,6,88,86,83,30.34,30.27,7,1,7,0.00
2013-12-15,2,1,-2,-5,-7,-8,77,69,63,30.24,30.18,6,1,14,0.00
2013-12-16,17,9,2,13,4,-5,93,82,71,30.21,29.99,7,0,7,0.00
2013-12-17,32,20,1,27,15,-2,97,80,65,30.16,29.95,22,2,22,0.00
2013-12-18,37,22,1,28,17,-2,93,84,67,30.12,29.70,12,0,12,0.10
2013-12-19,28,17,15,23,12,9,88,81,73,30.11,29.84,18,4,18,0.00
2013-12-20,16,14,13,13,11,10,88,87,86,30.08,30.04,10,2,12,0.00
2013-12-21,21,18,15,15,13,11,86,83,77,30.05,29.91,4,1,14,0.00
2013-12-22,16,12,2,14,8,-2,92,84,81,30.31,30.00,5,2,13,0.00
2013-12-23,15,-5,-12,-2,-11,-17,92,75,33,30.61,30.32,4,1,13,0.00
2013-12-24,10,-2,-19,6,-8,-24,88,77,56,30.60,30.22,13,0,13,0.00
2013-12-25,28,15,9,24,11,6,99,84,64,30.23,30.10,17,1,18,0.00
2013-12-26,26,17,2,23,13,-1,94,87,83,30.22,30.12,2,0,2,0.00
2013-12-27,39,24,7,32,22,5,96,89,73,30.21,29.95,13,0,13,0.12
2013-12-28,44,28,18,33,24,14,97,88,65,30.04,29.66,24,2,26,0.16
2013-12-29,18,-3,-19,14,-10,-24,83,70,58,30.41,30.04,21,4,24,0.00
2013-12-30,2,-7,-20,-3,-12,-25,92,82,77,30.41,30.29,4,0,5,0.00
2013-12-31,-1,-8,-15,-7,-12,-19,87,79,69,30.52,30.31,7,0,7,0.00
2014-1-1,1,-3,-8,-7,-10,-15,77,72,68,30.60,30.50,10,1,10,0.00
2014-1-2,0,-6,-16,-8,-14,-21,83,69,50,30.61,30.49,7,1,8,0.00